Columbia, CA

3:49 AM PST on February 10, 2016 (GMT -0800)
Columbia Airport

Weather History for KO22 - August, 2013

Change the Weather History Date:

Saturday, August 31, 2013

  Actual Average (KMOD) Record (KMOD)
Temperature  
Mean Temperature 77 °F -  
Max Temperature 95 °F 92 °F 104 °F (2007)
Min Temperature 59 °F 61 °F 48 °F (1957)
Degree Days  
Heating Degree Days 0 0  
Month to date heating degree days 0  
Since 1 June heating degree days 3  
Since 1 July heating degree days 0  
Cooling Degree Days 12 12  
Month to date cooling degree days 401  
Year to date cooling degree days 1336  
Since 1 June cooling degree days 1137  
Growing Degree Days 27 (Base 50)    
Moisture  
Dew Point 45 °F    
Average Humidity 35    
Maximum Humidity 59    
Minimum Humidity 18    
Precipitation  
Precipitation 0.00 in 0.00 in 0.00 in (2016)
Month to date precipitation 0.02  
Year to date precipitation 8.77  
Snow  
Snow 0.00 in - - ()
Month to date snowfall  
Since 1 June snowfall  
Since 1 July snowfall  
Snow Depth -    
Sea Level Pressure  
Sea Level Pressure 29.99 in    
Wind  
Wind Speed 2 mph (WSW)    
Max Wind Speed 10 mph    
Max Gust Speed -    
Visibility 8 miles    
Events      
T = Trace of Precipitation, MM = Missing Value Source: NWS Daily Summary

Daily Weather History Graph

Daily Weather History Graph

Search for Another Location

Airport or City:

Trip Planner

Search our weather history database for the weather conditions in past years. The results will help you decide how hot, cold, wet, or windy it might be!

Date:

Astronomy

Aug. 31, 2013 Rise Set
Actual Time 6:30 AM PDT 7:32 PM PDT
Civil Twilight 6:03 AM PDT 7:59 PM PDT
Nautical Twilight 5:31 AM PDT 8:31 PM PDT
Astronomical Twilight 4:58 AM PDT 9:04 PM PDT
Moon 2:06 AM PDT (8/31) 4:31 PM PDT (8/31)
Length of Visible Light 13h 55m
Length of Day
13h 01m
Waning Crescent, 20% of the Moon is Illuminated
Aug 31
Waning Crescent
Sep 5
New
Sep 12
First Quarter
Sep 19
Full
Sep 26
Last Quarter

Hourly Weather History & Observations

Time (PDT) Temp. Dew Point Humidity Pressure Visibility Wind Dir Wind Speed Gust Speed Precip Events Conditions
12:15 AM 64.4 °F 44.6 °F 49% 30.02 in 10.0 mi Calm Calm - N/A   Clear
12:35 AM 64.4 °F 44.6 °F 49% 30.01 in 10.0 mi Calm Calm - N/A   Clear
12:55 AM 64.4 °F 44.6 °F 49% 30.01 in 10.0 mi Calm Calm - N/A   Clear
1:15 AM 64.4 °F 44.6 °F 49% 30.01 in 10.0 mi Calm Calm - N/A   Clear
1:35 AM 62.6 °F 44.6 °F 52% 30.00 in 10.0 mi Calm Calm - N/A   Clear
1:55 AM 62.6 °F 44.6 °F 52% 30.00 in 10.0 mi Calm Calm - N/A   Clear
2:15 AM 62.6 °F 44.6 °F 52% 30.00 in 10.0 mi Calm Calm - N/A   Clear
2:35 AM 62.6 °F 44.6 °F 52% 30.00 in 10.0 mi Calm Calm - N/A   Clear
2:55 AM 62.6 °F 44.6 °F 52% 30.00 in 10.0 mi Calm Calm - N/A   Clear
3:15 AM 62.6 °F 44.6 °F 52% 29.99 in 10.0 mi Calm Calm - N/A   Clear
3:35 AM 60.8 °F 44.6 °F 55% 29.99 in 10.0 mi Calm Calm - N/A   Clear
3:55 AM 60.8 °F 44.6 °F 55% 29.99 in 10.0 mi Calm Calm - N/A   Clear
4:15 AM 62.6 °F 44.6 °F 52% 29.99 in 10.0 mi Calm Calm - N/A   Clear
4:35 AM 62.6 °F 44.6 °F 52% 29.99 in 10.0 mi Calm Calm - N/A   Clear
4:55 AM 60.8 °F 44.6 °F 55% 29.99 in 10.0 mi Calm Calm - N/A   Clear
5:15 AM 60.8 °F 44.6 °F 55% 29.99 in 10.0 mi Calm Calm - N/A   Clear
5:35 AM 59.0 °F 44.6 °F 59% 29.99 in 10.0 mi Calm Calm - N/A   Clear
5:55 AM 60.8 °F 44.6 °F 55% 29.99 in 10.0 mi Calm Calm - N/A   Clear
6:15 AM 60.8 °F 44.6 °F 55% 30.00 in 10.0 mi Calm Calm - N/A   Clear
6:35 AM 60.8 °F 44.6 °F 55% 30.00 in 9.0 mi Calm Calm - N/A   Clear
6:55 AM 62.6 °F 46.4 °F 55% 30.01 in 7.0 mi Calm Calm - N/A   Clear
7:15 AM 62.6 °F 46.4 °F 55% 30.01 in 6.0 mi Calm Calm - N/A   Clear
7:35 AM 66.2 °F 48.2 °F 52% 30.01 in 5.0 mi Calm Calm - N/A   Clear
7:55 AM 68.0 °F 48.2 °F 49% 30.01 in 5.0 mi Calm Calm - N/A   Clear
8:15 AM 71.6 °F 50.0 °F 46% 30.01 in 5.0 mi Calm Calm - N/A   Clear
8:35 AM 75.2 °F 50.0 °F 41% 30.01 in 4.0 mi Calm Calm - N/A   Clear
8:55 AM 78.8 °F 48.2 °F 34% 30.01 in 3.0 mi Calm Calm - N/A   Clear
9:15 AM 82.4 °F 44.6 °F 26% 30.02 in 4.0 mi Calm Calm - N/A   Clear
9:35 AM 84.2 °F 44.6 °F 25% 30.02 in 1.8 mi SSW 3.5 mph - N/A   Clear
9:55 AM 84.2 °F 42.8 °F 23% 30.02 in 1.5 mi South 3.5 mph - N/A   Clear
10:15 AM 84.2 °F 42.8 °F 23% 30.02 in 1.8 mi South 5.8 mph - N/A   Clear
10:35 AM 86.0 °F 41.0 °F 20% 30.02 in 1.8 mi South 3.5 mph - N/A   Clear
10:55 AM 86.0 °F 42.8 °F 22% 30.02 in 2.0 mi SSE 4.6 mph - N/A   Clear
11:15 AM 89.6 °F 44.6 °F 21% 30.01 in 2.5 mi SSW 4.6 mph - N/A   Clear
11:35 AM 89.6 °F 44.6 °F 21% 30.01 in 2.5 mi WSW 5.8 mph - N/A   Clear
11:55 AM 91.4 °F 42.8 °F 18% 30.01 in 3.0 mi WSW 4.6 mph - N/A   Clear
12:15 PM 91.4 °F 42.8 °F 18% 30.01 in 4.0 mi West 6.9 mph - N/A   Clear
12:35 PM 93.2 °F 44.6 °F 19% 30.00 in 4.0 mi WSW 8.1 mph - N/A   Clear
12:55 PM 91.4 °F 44.6 °F 20% 30.00 in 5.0 mi SW 9.2 mph - N/A   Clear
1:15 PM 91.4 °F 46.4 °F 21% 29.99 in 10.0 mi West 5.8 mph - N/A   Clear
1:35 PM 93.2 °F 46.4 °F 20% 29.99 in 10.0 mi WSW 8.1 mph - N/A   Clear
1:55 PM 93.2 °F 46.4 °F 20% 29.98 in 10.0 mi West 5.8 mph - N/A   Clear
2:15 PM 93.2 °F 46.4 °F 20% 29.98 in 10.0 mi SW 10.4 mph - N/A   Clear
2:35 PM 93.2 °F 46.4 °F 20% 29.97 in 10.0 mi WSW 6.9 mph - N/A   Clear
2:55 PM 95.0 °F 46.4 °F 19% 29.97 in 10.0 mi WSW 6.9 mph - N/A   Clear
3:15 PM 93.2 °F 44.6 °F 19% 29.96 in 10.0 mi SW 9.2 mph - N/A   Clear
3:35 PM 93.2 °F 44.6 °F 19% 29.96 in 10.0 mi WSW 6.9 mph - N/A   Clear
3:55 PM 93.2 °F 44.6 °F 19% 29.96 in 10.0 mi West 6.9 mph - N/A   Clear
4:15 PM 93.2 °F 44.6 °F 19% 29.95 in 10.0 mi West 5.8 mph - N/A   Clear
4:35 PM 93.2 °F 44.6 °F 19% 29.95 in 10.0 mi West 5.8 mph - N/A   Clear
4:55 PM 91.4 °F 44.6 °F 20% 29.95 in 10.0 mi WSW 5.8 mph - N/A   Clear
5:15 PM 91.4 °F 44.6 °F 20% 29.94 in 10.0 mi WSW 6.9 mph - N/A   Clear
5:35 PM 91.4 °F 44.6 °F 20% 29.95 in 10.0 mi WSW 6.9 mph - N/A   Clear
5:55 PM 91.4 °F 44.6 °F 20% 29.94 in 10.0 mi SW 9.2 mph - N/A   Clear
6:15 PM 89.6 °F 44.6 °F 21% 29.94 in 10.0 mi WSW 5.8 mph - N/A   Clear
6:35 PM 87.8 °F 42.8 °F 21% 29.94 in 10.0 mi WNW 3.5 mph - N/A   Clear
6:55 PM 86.0 °F 42.8 °F 22% 29.94 in 10.0 mi WNW 5.8 mph - N/A   Clear
7:15 PM 82.4 °F 41.0 °F 23% 29.95 in 10.0 mi NW 4.6 mph - N/A   Clear
7:35 PM 82.4 °F 41.0 °F 23% 29.95 in 10.0 mi NW 6.9 mph - N/A   Clear
7:55 PM 80.6 °F 42.8 °F 26% 29.95 in 10.0 mi WNW 5.8 mph - N/A   Mostly Cloudy
8:15 PM 80.6 °F 44.6 °F 28% 29.96 in 10.0 mi NW 6.9 mph - N/A   Overcast
8:35 PM 77.0 °F 44.6 °F 32% 29.96 in 10.0 mi NW 3.5 mph - N/A   Overcast
8:55 PM 75.2 °F 44.6 °F 34% 29.97 in 10.0 mi Calm Calm - N/A   Overcast
9:15 PM 71.6 °F 44.6 °F 38% 29.97 in 10.0 mi Calm Calm - N/A   Overcast
9:35 PM 71.6 °F 44.6 °F 38% 29.97 in 10.0 mi NE 3.5 mph - N/A   Overcast
9:55 PM 71.6 °F 44.6 °F 38% 29.97 in 10.0 mi NE 4.6 mph - N/A   Overcast
10:15 PM 71.6 °F 44.6 °F 38% 29.97 in 10.0 mi NE 3.5 mph - N/A   Overcast
10:35 PM 69.8 °F 44.6 °F 40% 29.97 in 10.0 mi Calm Calm - N/A   Overcast
10:55 PM 68.0 °F 46.4 °F 46% 29.98 in 10.0 mi NE 3.5 mph - N/A   Overcast
11:15 PM 69.8 °F 46.4 °F 43% 29.98 in 10.0 mi Calm Calm - N/A   Overcast
11:35 PM 68.0 °F 46.4 °F 46% 29.97 in 10.0 mi Calm Calm - N/A   Overcast
11:55 PM 68.0 °F 46.4 °F 46% 29.97 in 10.0 mi Calm Calm - N/A   Overcast